Weather History for Warrensburg, MO

Change the Weather History Date:

Friday, January 4, 2013

  Actual Average (KSZL) Record (KSZL)
Temperature  
Mean Temperature 30 °F -  
Max Temperature 41 °F 37 °F 64 °F (1997)
Min Temperature 19 °F 21 °F -4 °F (1999)
Degree Days  
Heating Degree Days 35    
Moisture  
Dew Point 23 °F    
Average Humidity 76    
Maximum Humidity 93    
Minimum Humidity 57    
Precipitation  
Precipitation 0.00 in - - ()
Sea Level Pressure  
Sea Level Pressure 30.34 in    
Wind  
Wind Speed 5 mph (South)    
Max Wind Speed 15 mph    
Max Gust Speed 23 mph    
Visibility 10 miles    
Events      
Averages and records for this station are not official NWS values.
T = Trace of Precipitation, MM = Missing Value Source: NWS Daily Summary

Daily Weather History Graph

Daily Weather History Graph

Search for Another Location

Airport:

Trip Planner

Search our weather history database for the weather conditions in past years. The results will help you decide how hot, cold, wet, or windy it might be!

Date:

Astronomy

Jan. 04, 2013 Rise Set
Actual Time 7:33 AM CST 5:07 PM CST
Civil Twilight 7:04 AM CST 5:36 PM CST
Nautical Twilight 6:30 AM CST 6:09 PM CST
Astronomical Twilight 5:58 AM CST 6:42 PM CST
Moon No Moon Rise 11:21 AM CST (1/4)
Length of Visible Light 10h 32m
Length of Day
9h 33m
Waning Gibbous, 55% of the Moon is Illuminated
Jan 4
Waning Gibbous
Jan 4
Last Quarter
Jan 11
New
Jan 18
First Quarter
Jan 26
Full

Hourly Weather History & Observations

Time (CST) Temp. Windchill Dew Point Humidity Pressure Visibility Wind Dir Wind Speed Gust Speed Precip Events Conditions
12:15 AM 23.0 °F - 19.4 °F 86% 30.40 in 10.0 mi Calm Calm - N/A   Clear
12:35 AM 23.0 °F 18.4 °F 19.4 °F 86% 30.40 in 10.0 mi South 3.5 mph - N/A   Clear
12:55 AM 21.2 °F 16.4 °F 19.4 °F 93% 30.40 in 10.0 mi South 3.5 mph - N/A   Clear
1:15 AM 21.2 °F 14.9 °F 19.4 °F 93% 30.39 in 10.0 mi SSW 4.6 mph - N/A   Clear
1:35 AM 21.2 °F - 17.6 °F 86% 30.40 in 10.0 mi Calm Calm - N/A   Clear
1:55 AM 23.0 °F - 19.4 °F 86% 30.40 in 10.0 mi Calm Calm - N/A   Clear
2:15 AM 21.2 °F - 17.6 °F 86% 30.41 in 10.0 mi Calm Calm - N/A   Clear
2:35 AM 21.2 °F - 17.6 °F 86% 30.41 in 10.0 mi Calm Calm - N/A   Scattered Clouds
2:55 AM 21.2 °F - 19.4 °F 93% 30.41 in 10.0 mi Calm Calm - N/A   Clear
3:15 AM 21.2 °F - 19.4 °F 93% 30.41 in 10.0 mi Calm Calm - N/A   Clear
5:35 AM 19.4 °F 12.8 °F 17.6 °F 93% 30.38 in 10.0 mi South 4.6 mph - N/A   Clear
5:55 AM 19.4 °F 12.8 °F 17.6 °F 93% 30.39 in 10.0 mi South 4.6 mph - N/A   Clear
6:15 AM 19.4 °F 11.5 °F 17.6 °F 93% 30.38 in 10.0 mi South 5.8 mph - N/A   Clear
6:35 AM 19.4 °F 12.8 °F 17.6 °F 93% 30.39 in 10.0 mi South 4.6 mph - N/A   Clear
6:55 AM 19.4 °F 14.3 °F 17.6 °F 93% 30.39 in 10.0 mi South 3.5 mph - N/A   Clear
7:35 AM 19.4 °F 12.8 °F 17.6 °F 93% 30.39 in 7.0 mi South 4.6 mph - N/A   Clear
7:55 AM 21.2 °F 13.6 °F 19.4 °F 93% 30.39 in 7.0 mi South 5.8 mph - N/A   Clear
8:15 AM 23.0 °F 15.8 °F 21.2 °F 93% 30.39 in 10.0 mi South 5.8 mph - N/A   Clear
8:35 AM 24.8 °F 16.9 °F 21.2 °F 86% 30.39 in 10.0 mi South 6.9 mph - N/A   Clear
8:55 AM 26.6 °F 18.2 °F 23.0 °F 86% 30.39 in 10.0 mi South 8.1 mph - N/A   Clear
9:15 AM 28.4 °F 20.4 °F 23.0 °F 80% 30.39 in 10.0 mi South 8.1 mph - N/A   Clear
9:35 AM 30.2 °F 21.3 °F 24.8 °F 80% 30.40 in 10.0 mi SSW 10.4 mph - N/A   Clear
9:55 AM 32.0 °F 21.6 °F 23.0 °F 69% 30.40 in 10.0 mi SSW 15.0 mph 20.7 mph N/A   Clear
10:15 AM 32.0 °F 22.1 °F 24.8 °F 75% 30.40 in 10.0 mi SSW 13.8 mph - N/A   Clear
10:35 AM 32.0 °F 22.1 °F 24.8 °F 75% 30.40 in 10.0 mi SSW 13.8 mph 23.0 mph N/A   Clear
10:55 AM 32.0 °F 21.6 °F 24.8 °F 75% 30.40 in 10.0 mi SSW 15.0 mph - N/A   Clear
11:15 AM 33.8 °F 24.3 °F 24.8 °F 70% 30.39 in 10.0 mi SSW 13.8 mph 18.4 mph N/A   Clear
11:35 AM 35.6 °F 27.5 °F 24.8 °F 65% 30.38 in 10.0 mi SSW 11.5 mph - N/A   Clear
11:55 AM 35.6 °F 27.5 °F 24.8 °F 65% 30.37 in 10.0 mi SW 11.5 mph - N/A   Clear
12:15 PM 37.4 °F 29.8 °F 24.8 °F 60% 30.35 in 10.0 mi SW 11.5 mph - N/A   Clear
12:55 PM 37.4 °F 28.9 °F 24.8 °F 60% 30.33 in 10.0 mi SSW 13.8 mph 18.4 mph N/A   Clear
1:15 PM 39.2 °F 31.2 °F 26.6 °F 61% 30.33 in 10.0 mi SW 13.8 mph - N/A   Clear
1:55 PM 41.0 °F 34.7 °F 26.6 °F 57% 30.31 in 10.0 mi SSW 10.4 mph - N/A   Clear
2:15 PM 41.0 °F 34.7 °F 26.6 °F 57% 30.30 in 10.0 mi SSW 10.4 mph - N/A   Clear
2:35 PM 41.0 °F 34.3 °F 26.6 °F 57% 30.30 in 10.0 mi SSW 11.5 mph - N/A   Clear
2:55 PM 41.0 °F 34.3 °F 26.6 °F 57% 30.30 in 10.0 mi SSW 11.5 mph - N/A   Clear
3:15 PM 41.0 °F 35.2 °F 26.6 °F 57% 30.30 in 10.0 mi South 9.2 mph - N/A   Clear
3:35 PM 41.0 °F 35.2 °F 26.6 °F 57% 30.30 in 10.0 mi SSW 9.2 mph - N/A   Clear
3:55 PM 41.0 °F 35.8 °F 26.6 °F 57% 30.29 in 10.0 mi SSW 8.1 mph - N/A   Clear
4:15 PM 41.0 °F 37.1 °F 26.6 °F 57% 30.29 in 10.0 mi South 5.8 mph - N/A   Clear
4:35 PM 39.2 °F 35.9 °F 26.6 °F 61% 30.29 in 10.0 mi South 4.6 mph - N/A   Clear
4:55 PM 37.4 °F 33.8 °F 26.6 °F 65% 30.29 in 10.0 mi South 4.6 mph - N/A   Clear
5:15 PM 35.6 °F 30.7 °F 26.6 °F 70% 30.29 in 10.0 mi South 5.8 mph - N/A   Clear
5:35 PM 35.6 °F 31.7 °F 26.6 °F 70% 30.29 in 10.0 mi South 4.6 mph - N/A   Clear
5:55 PM 35.6 °F 30.7 °F 26.6 °F 70% 30.29 in 10.0 mi South 5.8 mph - N/A   Clear
6:15 PM 33.8 °F 28.6 °F 26.6 °F 75% 30.29 in 10.0 mi South 5.8 mph - N/A   Clear
6:35 PM 33.8 °F 28.6 °F 26.6 °F 75% 30.29 in 10.0 mi South 5.8 mph - N/A   Clear
6:55 PM 32.0 °F 26.4 °F 26.6 °F 80% 30.28 in 10.0 mi South 5.8 mph - N/A   Clear
7:15 PM 32.0 °F 26.4 °F 24.8 °F 75% 30.28 in 10.0 mi SSE 5.8 mph - N/A   Clear
7:35 PM 32.0 °F 26.4 °F 24.8 °F 75% 30.29 in 10.0 mi South 5.8 mph - N/A   Clear
7:55 PM 32.0 °F 26.4 °F 24.8 °F 75% 30.28 in 10.0 mi South 5.8 mph - N/A   Clear
8:15 PM 32.0 °F 25.6 °F 24.8 °F 75% 30.27 in 10.0 mi South 6.9 mph - N/A   Clear
8:35 PM 32.0 °F 24.8 °F 24.8 °F 75% 30.27 in 10.0 mi South 8.1 mph - N/A   Clear
8:55 PM 32.0 °F 24.8 °F 26.6 °F 80% 30.27 in 10.0 mi South 8.1 mph - N/A   Clear
9:15 PM 32.0 °F 24.8 °F 26.6 °F 80% 30.26 in 10.0 mi South 8.1 mph - N/A   Clear
9:35 PM 33.8 °F 26.4 °F 26.6 °F 75% 30.26 in 10.0 mi South 9.2 mph - N/A   Clear
9:55 PM 32.0 °F 24.2 °F 26.6 °F 80% 30.26 in 10.0 mi South 9.2 mph - N/A   Clear
10:15 PM 32.0 °F 24.8 °F 24.8 °F 75% 30.26 in 10.0 mi South 8.1 mph - N/A   Clear
10:35 PM 32.0 °F 24.2 °F 24.8 °F 75% 30.26 in 10.0 mi South 9.2 mph - N/A   Clear
10:55 PM 32.0 °F 24.8 °F 24.8 °F 75% 30.27 in 10.0 mi South 8.1 mph - N/A   Clear
11:15 PM 32.0 °F 24.8 °F 24.8 °F 75% 30.27 in 10.0 mi South 8.1 mph - N/A   Clear
11:35 PM 32.0 °F 24.8 °F 24.8 °F 75% 30.27 in 10.0 mi South 8.1 mph - N/A   Clear
11:55 PM 32.0 °F 24.8 °F 24.8 °F 75% 30.26 in 10.0 mi South 8.1 mph - N/A   Clear